Regional Weather Roundup
Issued by NWS

Home | Current Version | Previous Version | Graphics & Text | Print | Product List | Glossary Off
Versions: 1 2 3 4 5 6 7 8 9 10 11 12 13 14 15 16 17 18 19 20 21 22 23 24 25 26 27 28 29 30 31 32 33 34 35 36 37 38 39 40 41 42 43 44 45 46 47 48 49 50

000
ASUS43 KDTX 261901
RWRMI
MICHIGAN HOURLY REGIONAL WEATHER ROUNDUP
NATIONAL WEATHER SERVICE DETROIT/PONTIAC MI
300 PM EDT SUN APR 26 2015

NOTE: "FAIR" INDICATES FEW OR NO CLOUDS BELOW 12,000 FEET WITH NO
SIGNIFICANT WEATHER AND/OR OBSTRUCTION TO VISIBILITY.

MIZ047>049-052>055-059>063-066>070-074>076-081>083-262000-
SOUTHEAST LOWER MICHIGAN

CITY           SKY/WX    TMP DP  RH WIND       PRES   REMARKS
ADRIAN         PTSUNNY   57  30  35 NE13      29.91F
ALMA           PTSUNNY   60  29  30 W10       29.94F
ANN ARBOR      CLOUDY    57  27  31 N12G18    29.90F
BAD AXE        SUNNY     51  31  46 N13G18    29.94F
CARO           MOSUNNY   54  33  44 N3        29.93S
DETROIT CITY   CLOUDY    55  29  36 N9        29.90S
DETROIT        PTSUNNY   57  27  31 N9        29.90F
FLINT          SUNNY     58  29  33 N15G22    29.94R
GROSSE ILE     PTSUNNY   55  27  33 NE10      29.88S
HILLSDALE      MOSUNNY   55  29  36 N10G20    29.91S
HOWELL         PTSUNNY   55  27  34 N10G16    29.92R

CITY           SKY/WX    TMP DP  RH WIND       PRES   REMARKS
JACKSON        PTSUNNY   55  27  34 N13       29.92S
LAMBERTVILLE   PTSUNNY   57  28  33 N6        29.90S
LANSING        PTSUNNY   57  28  33 N12G17    29.94S
LAPEER         CLOUDY    54  30  40 N12G18    29.91S
MASON          CLOUDY    53  28  38 NW10      29.93S
MONROE         PTSUNNY   57  28  33 CALM      29.88F
MT. CLEMENS    PTSUNNY   54  32  43 N13       29.88R
PONTIAC        CLOUDY    53  29  39 NW8       29.90S
PORT HOPE        N/A     44  35  70 N8        29.94F
PORT HURON     SUNNY     50  34  53 N10G17    29.92S
TRI CITIES     MOSUNNY   58  31  35 N7        29.94F
MIDLAND        CLOUDY    56  26  30 N3G16     29.92F
TROY           CLOUDY    55  28  34 N8        29.92S
SAGINAW HB     SUNNY     55  28  35 N12G17    29.93F
$$
MIZ043>046-050>051-056>058-064>065-071>073-077>080-262000-
SOUTHWEST LOWER MICHIGAN

CITY           SKY/WX    TMP DP  RH WIND       PRES   REMARKS
BATTLE CREEK   PTSUNNY   57  30  35 N10G18    29.94F
BENTON HARBOR  SUNNY     42  35  76 NW8       29.99F
BIG RAPIDS     MOSUNNY   56  25  30 N12G23    29.94F
COLDWATER      MOSUNNY   55  28  36 N12G17    29.92F
FREMONT        FAIR      58  22  25 N12G22    29.95F
HOLLAND        SUNNY     55  31  39 NW16G24   29.98F
GRAND RAPIDS   PTSUNNY   58  27  30 VRB5      29.94F
IONIA          MOCLDY    57  27  31 NE9G18    29.93F
KALAMAZOO      SUNNY     58  29  33 NE13G20   29.94F
LUDINGTON      SUNNY     52  26  36 N17G26    30.03S
MARSHALL       MOSUNNY   55  29  37 NW7       29.93F
MOUNT PLEASANT PTSUNNY   57  27  31 N8        29.93F
MUSKEGON       MOSUNNY   57  30  35 NW15G31   29.96F
SOUTH HAVEN    SUNNY     47  34  61 N16       29.98F
$$
MIZ016>042-262000-
NORTHERN LOWER MICHIGAN

CITY           SKY/WX    TMP DP  RH WIND       PRES   REMARKS
BEAVER ISLAND  MOSUNNY   49  31  48 NW7       30.03S
BELLAIRE       MOSUNNY   51  27  40 N8G16     30.00S
CADILLAC       SUNNY     53  23  31 N14G23    29.96S
CHARLEVOIX     CLOUDY    47  32  55 NW9       30.05S
FRANKFORT      SUNNY     52  24  34 N9        30.04F
GAYLORD        CLOUDY    49  27  42 NW9G20    29.96S
GRAYLING       CLOUDY    52  26  36 N12G17    29.95S
HARBOR SPRINGS PTSUNNY   53  30  41 NW9       29.99F
HOUGHTON LAKE  CLOUDY    54  25  32 N10       29.94F
MANISTEE       SUNNY     46  28  49 NW16      30.03F
OSCODA         PTSUNNY   49  32  53 NE12      29.93F
PELLSTON       PTSUNNY   52  31  44 NW14G21   30.00S
ROGERS CITY    CLOUDY    46  32  58 NW9       30.00F
TRAVERSE CITY  MOSUNNY   50  27  40 N13G24    30.01S
$$
MIZ007>008-015-262000-
EASTERN UPPER MICHIGAN

CITY           SKY/WX    TMP DP  RH WIND       PRES   REMARKS
KINROSS        PTSUNNY   45  34  65 NW15G22   30.01S
MACKINAC ISLAN LGT RAIN  49  34  57 N13G21    30.00S
NEWBERRY       MOSUNNY   44  33  64 NW14G22   30.04S
S. S. MARIE    PTSUNNY   44  30  57 NW12      30.01F
$$
MIZ004>006-011>014-085-262000-
CENTRAL UPPER MICHIGAN

CITY           SKY/WX    TMP DP  RH WIND       PRES   REMARKS
MANISTIQUE     PTSUNNY   51  33  50 N20G25    30.04S
ESCANABA       MOSUNNY   52  28  40 N12G17    30.06S
MENOMINEE      SUNNY     50  27  40 E16       30.05S
SAWYER-GWINN   SUNNY     46  28  49 NE18      30.09S
$$
MIZ001>003-009>011-084-262000-
WESTERN UPPER MICHIGAN

CITY           SKY/WX    TMP DP  RH WIND       PRES   REMARKS
IRON MOUNTAIN  SUNNY     58  24  27 NW13G20   30.03F
HOUGHTON       SUNNY     48  31  51 N10       30.12S
COPPER HARBOR    N/A     39  31  72 N12       30.16S WCI  32
IRONWOOD       SUNNY     46  28  49 N9G18     30.13S
$$

ABBREVIATIONS USED IN REMARKS
   TC - TEMPERATURE IN CELSIUS
  WCI - WIND CHILL INDEX
   HX - HEAT INDEX
  VSB - VISIBILITY



USA.gov is the U.S. government's official web portal to all federal, state and local government web resources and services.